CW0762 Weather Reports


Display with metric or nautical units.
time (UTC)temp
F
wind
direction
speed
MPH
gust
MPH
rain 1hr
in
rain 24hr
in
rain mn
in
humidity
%
barometer
mb
20260507183023 73 47 0.0 7.0 0.00 0.00 0.00 46 1018.9
20260507181528 73 273 1.0 4.0 0.00 0.00 0.00 48 1019.0
20260507180024 73 265 0.0 3.0 0.00 0.00 0.00 51 1019.5
20260507174520 72 280 0.0 3.0 0.00 0.00 0.00 51 1019.5
20260507173029 71 272 0.0 3.0 0.00 0.00 0.00 52 1020.1
20260507171513 71 290 0.0 2.0 0.00 0.00 0.00 55 1020.6
20260507170009 70 284 0.0 2.0 0.00 0.00 0.00 56 1021.0
20260507164506 68 285 0.0 3.0 0.00 0.00 0.00 56 1021.1
20260507163007 68 290 0.0 3.0 0.00 0.00 0.00 59 1021.3
20260507161604 66 248 0.0 4.0 0.00 0.00 0.00 61 1021.2
20260507160058 65 279 0.0 4.0 0.00 0.00 0.00 64 1021.2
20260507154558 64 279 0.0 3.0 0.00 0.02 0.00 62 1021.3
20260507153050 63 273 0.0 3.0 0.00 0.02 0.00 67 1021.3
20260507151546 62 275 0.0 3.0 0.00 0.02 0.00 72 1021.6
20260507150043 61 273 0.0 3.0 0.00 0.02 0.00 75 1021.7
20260507144542 60 275 0.0 2.0 0.00 0.02 0.00 79 1021.8
20260507143038 59 276 0.0 2.0 0.00 0.02 0.00 82 1021.9
20260507141533 57 279 0.0 2.0 0.00 0.02 0.00 85 1021.9
20260507140033 55 280 0.0 2.0 0.00 0.02 0.00 87 1022.0
20260507134537 55 280 0.0 2.0 0.00 0.02 0.00 87 1022.1
20260507133041 54 280 0.0 1.0 0.00 0.02 0.00 88 1022.4
20260507131541 53 280 0.0 0.0 0.00 0.02 0.00 88 1022.2
20260507130035 53 280 0.0 1.0 0.00 0.02 0.00 89 1022.1
20260507124531 52 280 0.0 1.0 0.00 0.02 0.00 89 1021.9
20260507123028 52 280 0.0 1.0 0.00 0.02 0.00 90 1021.8
20260507121526 52 280 0.0 0.0 0.00 0.02 0.00 90 1021.8
20260507120027 52 280 0.0 0.0 0.00 0.02 0.00 90 1021.5
20260507114523 52 280 0.0 0.0 0.00 0.02 0.00 90 1021.3
20260507113023 52 280 0.0 0.0 0.00 0.02 0.00 89 1021.2
20260507111522 52 280 0.0 1.0 0.00 0.02 0.00 89 1021.0
20260507110019 52 281 0.0 0.0 0.00 0.02 0.00 88 1021.2
20260507104517 53 281 0.0 0.0 0.00 0.02 0.00 88 1020.9
20260507103016 53 281 0.0 0.0 0.00 0.02 0.00 87 1020.7
20260507101515 53 281 0.0 0.0 0.00 0.02 0.00 87 1020.3
20260507100009 54 281 0.0 0.0 0.00 0.02 0.00 87 1020.1
20260507094507 54 281 0.0 1.0 0.00 0.02 0.00 87 1019.7
20260507093006 54 281 0.0 1.0 0.00 0.02 0.00 86 1019.6
20260507091503 54 281 0.0 1.0 0.00 0.02 0.00 85 1019.4
20260507090006 55 281 0.0 0.0 0.00 0.02 0.00 84 1019.5
20260507084603 55 281 0.0 0.0 0.00 0.02 0.00 84 1019.5
20260507083059 55 281 0.0 0.0 0.00 0.02 0.00 84 1019.5
20260507081557 55 281 0.0 0.0 0.00 0.02 0.00 84 1019.5
20260507080117 56 280 0.0 2.0 0.00 0.02 0.00 84 1019.4
20260507074555 56 281 0.0 2.0 0.00 0.02 0.00 82 1019.2
20260507073102 56 281 0.0 3.0 0.00 0.02 0.00 82 1019.1
20260507071549 56 276 0.0 2.0 0.00 0.02 0.00 81 1019.0
20260507070049 57 275 0.0 4.0 0.00 0.02 0.00 81 1019.1
20260507064548 57 288 0.0 2.0 0.00 0.02 0.00 80 1019.1
20260507063050 57 290 0.0 2.0 0.00 0.02 0.00 80 1019.1
20260507061544 57 290 0.0 2.0 0.00 0.02 0.00 79 1018.7
20260507060042 57 293 0.0 3.0 0.00 0.02 0.00 79 1018.7
20260507054541 57 300 0.0 2.0 0.00 0.02 0.00 79 1018.7
20260507053040 57 298 0.0 3.0 0.00 0.02 0.00 78 1018.6
20260507051537 58 281 0.0 6.0 0.00 0.02 0.00 77 1018.5
20260507050035 58 278 0.0 2.0 0.00 0.02 0.00 76 1018.6
20260507044535 58 269 0.0 2.0 0.00 0.02 0.02 76 1018.7
20260507043034 58 266 0.0 3.0 0.00 0.02 0.02 74 1018.7
20260507041533 59 259 0.0 3.0 0.00 0.02 0.02 73 1018.9
20260507040033 59 284 0.0 4.0 0.00 0.02 0.02 73 1018.9
20260507034535 59 259 1.0 8.0 0.00 0.02 0.02 73 1018.9
20260507033032 59 290 1.0 5.0 0.00 0.02 0.02 73 1019.0
20260507031531 60 255 1.0 5.0 0.00 0.02 0.02 73 1018.9
20260507030031 60 278 0.0 4.0 0.00 0.02 0.02 73 1018.7
20260507024528 60 295 1.0 5.0 0.00 0.02 0.02 72 1018.4
20260507023026 61 274 0.0 9.0 0.00 0.02 0.02 72 1018.1
20260507021525 61 275 1.0 5.0 0.00 0.02 0.02 73 1017.7
20260507020029 61 279 1.0 5.0 0.00 0.02 0.02 73 1017.5
20260507014529 61 271 1.0 5.0 0.00 0.02 0.02 72 1017.1
20260507013041 62 296 2.0 6.0 0.00 0.02 0.02 72 1016.6
20260507011523 62 257 1.0 5.0 0.00 0.02 0.02 72 1016.3
20260507010031 62 275 0.0 5.0 0.00 0.02 0.02 72 1016.2
20260507004522 62 263 1.0 6.0 0.00 0.02 0.02 71 1016.1
20260507003024 63 271 0.0 4.0 0.00 0.02 0.02 71 1016.1
20260507001521 63 279 1.0 5.0 0.00 0.02 0.02 71 1015.8
20260507000022 63 276 1.0 6.0 0.00 0.02 0.02 71 1015.6
20260506234521 64 274 1.0 5.0 0.00 0.02 0.02 70 1015.4
20260506233020 64 328 1.0 7.0 0.00 0.02 0.02 70 1015.3
20260506231519 65 280 0.0 4.0 0.00 0.02 0.02 70 1015.1
20260506230020 65 265 0.0 5.0 0.00 0.02 0.02 70 1015.0
20260506224519 65 279 0.0 4.0 0.00 0.02 0.02 70 1014.8
20260506223019 65 277 0.0 4.0 0.00 0.02 0.02 70 1014.9
20260506221518 65 263 1.0 5.0 0.00 0.02 0.02 69 1014.7
20260506220017 65 283 1.0 4.0 0.00 0.02 0.02 70 1014.8
20260506214521 64 282 0.0 8.0 0.00 0.02 0.02 72 1014.7
20260506213014 63 273 1.0 4.0 0.00 0.02 0.02 71 1014.8
20260506211511 63 264 0.0 3.0 0.00 0.02 0.02 71 1015.1
20260506210017 63 257 0.0 3.0 0.00 0.02 0.02 71 1015.1
20260506204511 63 272 1.0 6.0 0.00 0.02 0.02 70 1015.0
20260506203010 63 259 0.0 3.0 0.00 0.02 0.02 71 1015.2
20260506201506 62 273 0.0 4.0 0.00 0.02 0.02 73 1015.4
20260506200006 61 264 0.0 3.0 0.00 0.02 0.02 72 1015.9
20260506194505 60 288 0.0 4.0 0.00 0.02 0.02 74 1016.1
20260506193004 60 284 0.0 4.0 0.00 0.02 0.02 74 1016.2
20260506191504 60 273 0.0 3.0 0.00 0.02 0.02 75 1016.3
20260506190008 60 274 0.0 4.0 0.00 0.02 0.02 74 1016.2
20260506184503 60 302 0.0 6.0 0.00 0.02 0.02 75 1015.9